Location: Caltech
(34.1382°N, 118.1253°W)
Time: 22:19:10
(UTC-08:00)

Cosmos 2219 Rocket - Visible Passes

Search period start: 28 January 2015 00:00
Search period end: 07 February 2015 00:00
Orbit: 829 x 846 km, 71.0° (Epoch: 28 January)

Date Brightness Start Highest point End Pass type
(mag) Time Alt. Az. Time Alt. Az. Time Alt. Az.
31 Jan 4.8 06:12:53 10° NNE 06:14:39 12° NE 06:16:46 10° ENE visible
01 Feb 5.0 05:57:12 10° NE 05:58:17 11° NE 05:59:44 10° ENE visible
06 Feb 2.9 06:16:18 10° NNW 06:21:47 57° ENE 06:27:16 10° SE visible
